Year,Month,Day,Hour,Minute,Value (Times are PST for temperature in C)
2014,06,30,00,00,13.20
2014,06,30,00,01,13.20
2014,06,30,00,02,13.20
2014,06,30,00,03,13.10
2014,06,30,00,04,13.10
2014,06,30,00,05,13.10
2014,06,30,00,06,13.10
2014,06,30,00,07,13.10
2014,06,30,00,08,13.10
2014,06,30,00,09,13.00
2014,06,30,00,10,13.00
2014,06,30,00,11,13.00
2014,06,30,00,12,12.90
2014,06,30,00,13,12.90
2014,06,30,00,14,12.90
2014,06,30,00,15,12.90
2014,06,30,00,16,12.80
2014,06,30,00,17,12.80
2014,06,30,00,18,12.80
2014,06,30,00,19,12.80
2014,06,30,00,20,12.80
2014,06,30,00,21,12.80
2014,06,30,00,22,12.70
2014,06,30,00,23,12.70
2014,06,30,00,24,12.70
2014,06,30,00,25,12.70
2014,06,30,00,26,12.70
2014,06,30,00,27,12.60
2014,06,30,00,28,12.60
2014,06,30,00,29,12.60
2014,06,30,00,30,12.60
2014,06,30,00,31,12.60
2014,06,30,00,32,12.60
2014,06,30,00,33,12.50
2014,06,30,00,34,12.50
2014,06,30,00,35,12.50
2014,06,30,00,36,12.50
2014,06,30,00,37,12.40
2014,06,30,00,38,12.40
2014,06,30,00,39,12.40
2014,06,30,00,40,12.40
2014,06,30,00,41,12.40
2014,06,30,00,42,12.40
2014,06,30,00,43,12.30
2014,06,30,00,44,12.30
2014,06,30,00,45,12.30
2014,06,30,00,46,12.30
2014,06,30,00,47,12.30
2014,06,30,00,48,12.30
2014,06,30,00,49,12.20
2014,06,30,00,50,12.20
2014,06,30,00,51,12.20
2014,06,30,00,52,12.20
2014,06,30,00,53,12.20
2014,06,30,00,54,12.20
2014,06,30,00,55,12.20
2014,06,30,00,56,12.20
2014,06,30,00,57,12.20
2014,06,30,00,58,12.10
2014,06,30,00,59,12.10
2014,06,30,01,00,12.10
2014,06,30,01,01,12.10
2014,06,30,01,02,12.10
2014,06,30,01,03,12.10
2014,06,30,01,04,12.10
2014,06,30,01,05,12.10
2014,06,30,01,06,12.10
2014,06,30,01,07,12.10
2014,06,30,01,08,12.10
2014,06,30,01,09,12.00
2014,06,30,01,10,12.00
2014,06,30,01,11,12.00
2014,06,30,01,12,12.00
2014,06,30,01,13,12.00
2014,06,30,01,14,12.00
2014,06,30,01,15,11.90
2014,06,30,01,16,11.90
2014,06,30,01,17,11.90
2014,06,30,01,18,11.90
2014,06,30,01,19,11.90
2014,06,30,01,20,11.90
2014,06,30,01,21,11.90
2014,06,30,01,22,11.90
2014,06,30,01,23,11.90
2014,06,30,01,24,11.80
2014,06,30,01,25,11.80
2014,06,30,01,26,11.80
2014,06,30,01,27,11.80
2014,06,30,01,28,11.80
2014,06,30,01,29,11.80
2014,06,30,01,30,11.80
2014,06,30,01,31,11.80
2014,06,30,01,32,11.70
2014,06,30,01,33,11.70
2014,06,30,01,34,11.70
2014,06,30,01,35,11.70
2014,06,30,01,36,11.70
2014,06,30,01,37,11.70
2014,06,30,01,38,11.70
2014,06,30,01,39,11.70
2014,06,30,01,40,11.70
2014,06,30,01,41,11.70
2014,06,30,01,42,11.70
2014,06,30,01,43,11.60
2014,06,30,01,44,11.60
2014,06,30,01,45,11.60
2014,06,30,01,46,11.60
2014,06,30,01,47,11.60
2014,06,30,01,48,11.60
2014,06,30,01,49,11.60
2014,06,30,01,50,11.60
2014,06,30,01,51,11.50
2014,06,30,01,52,11.50
2014,06,30,01,53,11.50
2014,06,30,01,54,11.50
2014,06,30,01,55,11.50
2014,06,30,01,56,11.50
2014,06,30,01,57,11.50
2014,06,30,01,58,11.40
2014,06,30,01,59,11.40
2014,06,30,02,00,11.40
2014,06,30,02,01,11.40
2014,06,30,02,02,11.40
2014,06,30,02,03,11.40
2014,06,30,02,04,11.40
2014,06,30,02,05,11.30
2014,06,30,02,06,11.30
2014,06,30,02,07,11.30
2014,06,30,02,08,11.30
2014,06,30,02,09,11.30
2014,06,30,02,10,11.30
2014,06,30,02,11,11.30
2014,06,30,02,12,11.30
2014,06,30,02,13,11.30
2014,06,30,02,14,11.30
2014,06,30,02,15,11.30
2014,06,30,02,16,11.30
2014,06,30,02,17,11.30
2014,06,30,02,18,11.20
2014,06,30,02,19,11.20
2014,06,30,02,20,11.20
2014,06,30,02,21,11.20
2014,06,30,02,22,11.20
2014,06,30,02,23,11.20
2014,06,30,02,24,11.20
2014,06,30,02,25,11.20
2014,06,30,02,26,11.20
2014,06,30,02,27,11.20
2014,06,30,02,28,11.20
2014,06,30,02,29,11.10
2014,06,30,02,30,11.10
2014,06,30,02,31,11.10
2014,06,30,02,32,11.10
2014,06,30,02,33,11.10
2014,06,30,02,34,11.10
2014,06,30,02,35,11.10
2014,06,30,02,36,11.10
2014,06,30,02,37,11.10
2014,06,30,02,38,11.00
2014,06,30,02,39,11.00
2014,06,30,02,40,11.00
2014,06,30,02,41,11.00
2014,06,30,02,42,11.00
2014,06,30,02,43,11.00
2014,06,30,02,44,11.00
2014,06,30,02,45,11.00
2014,06,30,02,46,11.00
2014,06,30,02,47,11.00
2014,06,30,02,48,11.00
2014,06,30,02,49,10.90
2014,06,30,02,50,10.90
2014,06,30,02,51,10.90
2014,06,30,02,52,10.90
2014,06,30,02,53,10.90
2014,06,30,02,54,10.90
2014,06,30,02,55,10.90
2014,06,30,02,56,10.90
2014,06,30,02,57,10.90
2014,06,30,02,58,10.90
2014,06,30,02,59,10.90
2014,06,30,03,00,10.80
2014,06,30,03,01,10.90
2014,06,30,03,02,10.80
2014,06,30,03,03,10.80
2014,06,30,03,04,10.80
2014,06,30,03,05,10.80
2014,06,30,03,06,10.80
2014,06,30,03,07,10.80
2014,06,30,03,08,10.80
2014,06,30,03,09,10.80
2014,06,30,03,10,10.80
2014,06,30,03,11,10.80
2014,06,30,03,12,10.80
2014,06,30,03,13,10.80
2014,06,30,03,14,10.80
2014,06,30,03,15,10.80
2014,06,30,03,16,10.80
2014,06,30,03,17,10.80
2014,06,30,03,18,10.80
2014,06,30,03,19,10.80
2014,06,30,03,20,10.80
2014,06,30,03,21,10.70
2014,06,30,03,22,10.70
2014,06,30,03,23,10.70
2014,06,30,03,24,10.70
2014,06,30,03,25,10.70
2014,06,30,03,26,10.70
2014,06,30,03,27,10.70
2014,06,30,03,28,10.70
2014,06,30,03,29,10.70
2014,06,30,03,30,10.70
2014,06,30,03,31,10.60
2014,06,30,03,32,10.60
2014,06,30,03,33,10.60
2014,06,30,03,34,10.60
2014,06,30,03,35,10.60
2014,06,30,03,36,10.60
2014,06,30,03,37,10.60
2014,06,30,03,38,10.60
2014,06,30,03,39,10.60
2014,06,30,03,40,10.60
2014,06,30,03,41,10.60
2014,06,30,03,42,10.60
2014,06,30,03,43,10.60
2014,06,30,03,44,10.60
2014,06,30,03,45,10.60
2014,06,30,03,46,10.60
2014,06,30,03,47,10.60
2014,06,30,03,48,10.60
2014,06,30,03,49,10.60
2014,06,30,03,50,10.60
2014,06,30,03,51,10.50
2014,06,30,03,52,10.50
2014,06,30,03,53,10.50
2014,06,30,03,54,10.50
2014,06,30,03,55,10.50
2014,06,30,03,56,10.50
2014,06,30,03,57,10.40
2014,06,30,03,58,10.40
2014,06,30,03,59,10.40
2014,06,30,04,00,10.40
2014,06,30,04,01,10.40
2014,06,30,04,02,10.40
2014,06,30,04,03,10.40
2014,06,30,04,04,10.40
2014,06,30,04,05,10.40
2014,06,30,04,06,10.40
2014,06,30,04,07,10.40
2014,06,30,04,08,10.40
2014,06,30,04,09,10.40
2014,06,30,04,10,10.40
2014,06,30,04,11,10.40
2014,06,30,04,12,10.30
2014,06,30,04,13,10.30
2014,06,30,04,14,10.30
2014,06,30,04,15,10.30
2014,06,30,04,16,10.30
2014,06,30,04,17,10.30
2014,06,30,04,18,10.30
2014,06,30,04,19,10.30
2014,06,30,04,20,10.30
2014,06,30,04,21,10.30
2014,06,30,04,22,10.30
2014,06,30,04,23,10.30
2014,06,30,04,24,10.30
2014,06,30,04,25,10.20
2014,06,30,04,26,10.20
2014,06,30,04,27,10.20
2014,06,30,04,28,10.20
2014,06,30,04,29,10.20
2014,06,30,04,30,10.20
2014,06,30,04,31,10.20
2014,06,30,04,32,10.20
2014,06,30,04,33,10.20
2014,06,30,04,34,10.20
2014,06,30,04,35,10.20
2014,06,30,04,36,10.20
2014,06,30,04,37,10.20
2014,06,30,04,38,10.20
2014,06,30,04,39,10.20
2014,06,30,04,40,10.20
2014,06,30,04,41,10.20
2014,06,30,04,42,10.20
2014,06,30,04,43,10.10
2014,06,30,04,44,10.10
2014,06,30,04,45,10.10
2014,06,30,04,46,10.10
2014,06,30,04,47,10.10
2014,06,30,04,48,10.10
2014,06,30,04,49,10.10
2014,06,30,04,50,10.10
2014,06,30,04,51,10.10
2014,06,30,04,52,10.10
2014,06,30,04,53,10.10
2014,06,30,04,54,10.10
2014,06,30,04,55,10.10
2014,06,30,04,56,10.10
2014,06,30,04,57,10.10
2014,06,30,04,58,10.10
2014,06,30,04,59,10.00
2014,06,30,05,00,10.00
2014,06,30,05,01,10.00
2014,06,30,05,02,10.00
2014,06,30,05,03,10.00
2014,06,30,05,04,10.00
2014,06,30,05,05,10.00
2014,06,30,05,06,10.00
2014,06,30,05,07,9.90
2014,06,30,05,08,9.90
2014,06,30,05,09,9.90
2014,06,30,05,10,9.90
2014,06,30,05,11,9.90
2014,06,30,05,12,9.90
2014,06,30,05,13,9.90
2014,06,30,05,14,9.90
2014,06,30,05,15,9.90
2014,06,30,05,16,9.90
2014,06,30,05,17,9.90
2014,06,30,05,18,9.90
2014,06,30,05,19,9.80
2014,06,30,05,20,9.80
2014,06,30,05,21,9.80
2014,06,30,05,22,9.80
2014,06,30,05,23,9.80
2014,06,30,05,24,9.80
2014,06,30,05,25,9.80
2014,06,30,05,26,9.80
2014,06,30,05,27,9.80
2014,06,30,05,28,9.80
2014,06,30,05,29,9.80
2014,06,30,05,30,9.80
2014,06,30,05,31,9.80
2014,06,30,05,32,9.80
2014,06,30,05,33,9.80
2014,06,30,05,34,9.80
2014,06,30,05,35,9.80
2014,06,30,05,36,9.80
2014,06,30,05,37,9.80
2014,06,30,05,38,9.80
2014,06,30,05,39,9.80
2014,06,30,05,40,9.80
2014,06,30,05,41,9.80
2014,06,30,05,42,9.80
2014,06,30,05,43,9.80
2014,06,30,05,44,9.80
2014,06,30,05,45,9.80
2014,06,30,05,46,9.80
2014,06,30,05,47,9.80
2014,06,30,05,48,9.80
2014,06,30,05,49,9.80
2014,06,30,05,50,9.80
2014,06,30,05,51,9.80
2014,06,30,05,52,9.80
2014,06,30,05,53,9.80
2014,06,30,05,54,9.80
2014,06,30,05,55,9.80
2014,06,30,05,56,9.80
2014,06,30,05,57,9.80
2014,06,30,05,58,9.70
2014,06,30,05,59,9.80
2014,06,30,06,00,9.80
2014,06,30,06,01,9.80
2014,06,30,06,02,9.80
2014,06,30,06,03,9.80
2014,06,30,06,04,9.80
2014,06,30,06,05,9.80
2014,06,30,06,06,9.80
2014,06,30,06,07,9.80
2014,06,30,06,08,9.80
2014,06,30,06,09,9.80
2014,06,30,06,10,9.90
2014,06,30,06,11,9.90
2014,06,30,06,12,9.90
2014,06,30,06,13,9.90
2014,06,30,06,14,9.90
2014,06,30,06,15,9.90
2014,06,30,06,16,9.90
2014,06,30,06,17,9.90
2014,06,30,06,18,9.90
2014,06,30,06,19,9.90
2014,06,30,06,20,9.90
2014,06,30,06,21,10.00
2014,06,30,06,22,10.00
2014,06,30,06,23,10.00
2014,06,30,06,24,10.00
2014,06,30,06,25,10.10
2014,06,30,06,26,10.10
2014,06,30,06,27,10.10
2014,06,30,06,28,10.10
2014,06,30,06,29,10.10
2014,06,30,06,30,10.10
2014,06,30,06,31,10.20
2014,06,30,06,32,10.20
2014,06,30,06,33,10.20
2014,06,30,06,34,10.20
2014,06,30,06,35,10.20
2014,06,30,06,36,10.30
2014,06,30,06,37,10.30
2014,06,30,06,38,10.30
2014,06,30,06,39,10.30
2014,06,30,06,40,10.30
2014,06,30,06,41,10.40
2014,06,30,06,42,10.40
2014,06,30,06,43,10.40
2014,06,30,06,44,10.40
2014,06,30,06,45,10.40
2014,06,30,06,46,10.50
2014,06,30,06,47,10.50
2014,06,30,06,48,10.60
2014,06,30,06,49,10.60
2014,06,30,06,50,10.60
2014,06,30,06,51,10.70
2014,06,30,06,52,10.70
2014,06,30,06,53,10.70
2014,06,30,06,54,10.80
2014,06,30,06,55,10.80
2014,06,30,06,56,10.90
2014,06,30,06,57,11.00
2014,06,30,06,58,11.00
2014,06,30,06,59,11.10
2014,06,30,07,00,11.20
2014,06,30,07,01,11.20
2014,06,30,07,02,11.30
2014,06,30,07,03,11.40
2014,06,30,07,04,11.40
2014,06,30,07,05,11.50
2014,06,30,07,06,11.60
2014,06,30,07,07,11.70
2014,06,30,07,08,11.80
2014,06,30,07,09,11.80
2014,06,30,07,10,11.90
2014,06,30,07,11,12.00
2014,06,30,07,12,12.10
2014,06,30,07,13,12.20
2014,06,30,07,14,12.40
2014,06,30,07,15,12.50
2014,06,30,07,16,12.60
2014,06,30,07,17,12.70
2014,06,30,07,18,12.80
2014,06,30,07,19,12.90
2014,06,30,07,20,13.00
2014,06,30,07,21,13.10
2014,06,30,07,22,13.20
2014,06,30,07,23,13.30
2014,06,30,07,24,13.40
2014,06,30,07,25,13.50
2014,06,30,07,26,13.60
2014,06,30,07,27,13.60
2014,06,30,07,28,13.70
2014,06,30,07,29,13.80
2014,06,30,07,30,13.90
2014,06,30,07,31,13.90
2014,06,30,07,32,14.00
2014,06,30,07,33,14.10
2014,06,30,07,34,14.20
2014,06,30,07,35,14.30
2014,06,30,07,36,14.40
2014,06,30,07,37,14.50
2014,06,30,07,38,14.70
2014,06,30,07,39,14.70
2014,06,30,07,40,14.80
2014,06,30,07,41,14.90
2014,06,30,07,42,15.00
2014,06,30,07,43,15.10
2014,06,30,07,44,15.10
2014,06,30,07,45,15.20
2014,06,30,07,46,15.20
2014,06,30,07,47,15.30
2014,06,30,07,48,15.30
2014,06,30,07,49,15.30
2014,06,30,07,50,15.40
2014,06,30,07,51,15.40
2014,06,30,07,52,15.40
2014,06,30,07,53,15.40
2014,06,30,07,54,15.40
2014,06,30,07,55,15.40
2014,06,30,07,56,15.40
2014,06,30,07,57,15.40
2014,06,30,07,58,15.40
2014,06,30,07,59,15.40
2014,06,30,08,00,15.40
2014,06,30,08,01,15.40
2014,06,30,08,02,15.40
2014,06,30,08,03,15.40
2014,06,30,08,04,15.50
2014,06,30,08,05,15.60
2014,06,30,08,06,15.60
2014,06,30,08,07,15.70
2014,06,30,08,08,15.70
2014,06,30,08,09,15.80
2014,06,30,08,10,15.80
2014,06,30,08,11,15.90
2014,06,30,08,12,16.00
2014,06,30,08,13,16.10
2014,06,30,08,14,16.10
2014,06,30,08,15,16.10
2014,06,30,08,16,16.20
2014,06,30,08,17,16.20
2014,06,30,08,18,16.30
2014,06,30,08,19,16.30
2014,06,30,08,20,16.40
2014,06,30,08,21,16.50
2014,06,30,08,22,16.50
2014,06,30,08,23,16.60
2014,06,30,08,24,16.60
2014,06,30,08,25,16.70
2014,06,30,08,26,16.80
2014,06,30,08,27,16.80
2014,06,30,08,28,16.90
2014,06,30,08,29,16.90
2014,06,30,08,30,17.00
2014,06,30,08,31,17.00
2014,06,30,08,32,17.10
2014,06,30,08,33,17.10
2014,06,30,08,34,17.10
2014,06,30,08,35,17.10
2014,06,30,08,36,17.20
2014,06,30,08,37,17.20
2014,06,30,08,38,17.30
2014,06,30,08,39,17.30
2014,06,30,08,40,17.30
2014,06,30,08,41,17.30
2014,06,30,08,42,17.30
2014,06,30,08,43,17.30
2014,06,30,08,44,17.30
2014,06,30,08,45,17.40
2014,06,30,08,46,17.40
2014,06,30,08,47,17.50
2014,06,30,08,48,17.60
2014,06,30,08,49,17.60
2014,06,30,08,50,17.70
2014,06,30,08,51,17.70
2014,06,30,08,52,17.80
2014,06,30,08,53,17.90
2014,06,30,08,54,17.90
2014,06,30,08,55,17.90
2014,06,30,08,56,18.00
2014,06,30,08,57,18.00
2014,06,30,08,58,18.10
2014,06,30,08,59,18.20
2014,06,30,09,00,18.30
2014,06,30,09,01,18.30
2014,06,30,09,02,18.40
2014,06,30,09,03,18.40
2014,06,30,09,04,18.50
2014,06,30,09,05,18.50
2014,06,30,09,06,18.50
2014,06,30,09,07,18.60
2014,06,30,09,08,18.70
2014,06,30,09,09,18.80
2014,06,30,09,10,18.80
2014,06,30,09,11,18.90
2014,06,30,09,12,18.90
2014,06,30,09,13,18.90
2014,06,30,09,14,18.80
2014,06,30,09,15,18.80
2014,06,30,09,16,18.80
2014,06,30,09,17,18.80
2014,06,30,09,18,18.80
2014,06,30,09,19,18.80
2014,06,30,09,20,18.80
2014,06,30,09,21,18.80
2014,06,30,09,22,18.80
2014,06,30,09,23,18.80
2014,06,30,09,24,18.80
2014,06,30,09,25,18.70
2014,06,30,09,26,18.60
2014,06,30,09,27,18.60
2014,06,30,09,28,18.60
2014,06,30,09,29,18.60
2014,06,30,09,30,18.60
2014,06,30,09,31,18.60
2014,06,30,09,32,18.60
2014,06,30,09,33,18.70
2014,06,30,09,34,18.80
2014,06,30,09,35,18.80
2014,06,30,09,36,18.90
2014,06,30,09,37,18.90
2014,06,30,09,38,18.90
2014,06,30,09,39,18.90
2014,06,30,09,40,19.00
2014,06,30,09,41,19.10
2014,06,30,09,42,19.20
2014,06,30,09,43,19.30
2014,06,30,09,44,19.50
2014,06,30,09,45,19.50
2014,06,30,09,46,19.60
2014,06,30,09,47,19.60
2014,06,30,09,48,19.60
2014,06,30,09,49,19.60
2014,06,30,09,50,19.70
2014,06,30,09,51,19.80
2014,06,30,09,52,19.80
2014,06,30,09,53,19.80
2014,06,30,09,54,19.80
2014,06,30,09,55,19.80
2014,06,30,09,56,19.90
2014,06,30,09,57,19.90
2014,06,30,09,58,19.90
2014,06,30,09,59,19.90
2014,06,30,10,00,19.90
2014,06,30,10,01,19.90
2014,06,30,10,02,19.80
2014,06,30,10,03,19.70
2014,06,30,10,04,19.70
2014,06,30,10,05,19.60
2014,06,30,10,06,19.60
2014,06,30,10,07,19.60
2014,06,30,10,08,19.60
2014,06,30,10,09,19.60
2014,06,30,10,10,19.70
2014,06,30,10,11,19.70
2014,06,30,10,12,19.80
2014,06,30,10,13,19.80
2014,06,30,10,14,19.90
2014,06,30,10,15,19.90
2014,06,30,10,16,19.90
2014,06,30,10,17,19.80
2014,06,30,10,18,19.80
2014,06,30,10,19,19.80
2014,06,30,10,20,19.80
2014,06,30,10,21,19.90
2014,06,30,10,22,19.90
2014,06,30,10,23,20.00
2014,06,30,10,24,20.10
2014,06,30,10,25,20.10
2014,06,30,10,26,20.00
2014,06,30,10,27,20.00
2014,06,30,10,28,20.00
2014,06,30,10,29,20.00
2014,06,30,10,30,20.00
2014,06,30,10,31,20.00
2014,06,30,10,32,20.10
2014,06,30,10,33,20.10
2014,06,30,10,34,20.10
2014,06,30,10,35,20.30
2014,06,30,10,36,20.30
2014,06,30,10,37,20.30
2014,06,30,10,38,20.40
2014,06,30,10,39,20.40
2014,06,30,10,40,20.40
2014,06,30,10,41,20.40
2014,06,30,10,42,20.30
2014,06,30,10,43,20.30
2014,06,30,10,44,20.40
2014,06,30,10,45,20.30
2014,06,30,10,46,20.30
2014,06,30,10,47,20.30
2014,06,30,10,48,20.30
2014,06,30,10,49,20.30
2014,06,30,10,50,20.20
2014,06,30,10,51,20.10
2014,06,30,10,52,19.90
2014,06,30,10,53,19.70
2014,06,30,10,54,19.60
2014,06,30,10,55,19.50
2014,06,30,10,56,19.30
2014,06,30,10,57,19.20
2014,06,30,10,58,19.20
2014,06,30,10,59,19.20
2014,06,30,11,00,19.30
2014,06,30,11,01,19.30
2014,06,30,11,02,19.30
2014,06,30,11,03,19.20
2014,06,30,11,04,19.10
2014,06,30,11,05,19.10
2014,06,30,11,06,19.10
2014,06,30,11,07,19.00
2014,06,30,11,08,19.00
2014,06,30,11,09,19.10
2014,06,30,11,10,19.10
2014,06,30,11,11,19.10
2014,06,30,11,12,19.20
2014,06,30,11,13,19.20
2014,06,30,11,14,19.30
2014,06,30,11,15,19.30
2014,06,30,11,16,19.30
2014,06,30,11,17,19.20
2014,06,30,11,18,19.20
2014,06,30,11,19,19.20
2014,06,30,11,20,19.10
2014,06,30,11,21,19.10
2014,06,30,11,22,19.00
2014,06,30,11,23,18.90
2014,06,30,11,24,18.90
2014,06,30,11,25,18.90
2014,06,30,11,26,19.00
2014,06,30,11,27,19.00
2014,06,30,11,28,19.00
2014,06,30,11,29,18.90
2014,06,30,11,30,18.80
2014,06,30,11,31,18.80
2014,06,30,11,32,18.80
2014,06,30,11,33,18.70
2014,06,30,11,34,18.70
2014,06,30,11,35,18.70
2014,06,30,11,36,18.70
2014,06,30,11,37,18.80
2014,06,30,11,38,18.90
2014,06,30,11,39,19.00
2014,06,30,11,40,19.00
2014,06,30,11,41,18.90
2014,06,30,11,42,18.80
2014,06,30,11,43,18.90
2014,06,30,11,44,18.90
2014,06,30,11,45,19.00
2014,06,30,11,46,19.00
2014,06,30,11,47,19.00
2014,06,30,11,48,19.10
2014,06,30,11,49,19.10
2014,06,30,11,50,19.20
2014,06,30,11,51,19.30
2014,06,30,11,52,19.40
2014,06,30,11,53,19.40
2014,06,30,11,54,19.50
2014,06,30,11,55,19.50
2014,06,30,11,56,19.50
2014,06,30,11,57,19.50
2014,06,30,11,58,19.50
2014,06,30,11,59,19.40
2014,06,30,12,00,19.30
2014,06,30,12,01,19.30
2014,06,30,12,02,19.30
2014,06,30,12,03,19.40
2014,06,30,12,04,19.40
2014,06,30,12,05,19.40
2014,06,30,12,06,19.40
2014,06,30,12,07,19.30
2014,06,30,12,08,19.30
2014,06,30,12,09,19.30
2014,06,30,12,10,19.40
2014,06,30,12,11,19.40
2014,06,30,12,12,19.50
2014,06,30,12,13,19.60
2014,06,30,12,14,19.50
2014,06,30,12,15,19.50
2014,06,30,12,16,19.50
2014,06,30,12,17,19.50
2014,06,30,12,18,19.60
2014,06,30,12,19,19.80
2014,06,30,12,20,19.80
2014,06,30,12,21,19.80
2014,06,30,12,22,19.90
2014,06,30,12,23,19.90
2014,06,30,12,24,19.90
2014,06,30,12,25,19.90
2014,06,30,12,26,20.00
2014,06,30,12,27,20.10
2014,06,30,12,28,20.00
2014,06,30,12,29,20.00
2014,06,30,12,30,19.90
2014,06,30,12,31,19.90
2014,06,30,12,32,19.90
2014,06,30,12,33,19.90
2014,06,30,12,34,19.90
2014,06,30,12,35,19.90
2014,06,30,12,36,20.00
2014,06,30,12,37,20.20
2014,06,30,12,38,20.20
2014,06,30,12,39,20.20
2014,06,30,12,40,20.10
2014,06,30,12,41,20.00
2014,06,30,12,42,19.90
2014,06,30,12,43,19.80
2014,06,30,12,44,19.90
2014,06,30,12,45,20.00
2014,06,30,12,46,20.00
2014,06,30,12,47,20.00
2014,06,30,12,48,19.90
2014,06,30,12,49,19.90
2014,06,30,12,50,19.90
2014,06,30,12,51,19.90
2014,06,30,12,52,19.90
2014,06,30,12,53,19.90
2014,06,30,12,54,19.90
2014,06,30,12,55,19.90
2014,06,30,12,56,19.90
2014,06,30,12,57,19.90
2014,06,30,12,58,20.00
2014,06,30,12,59,19.90
2014,06,30,13,00,20.00
2014,06,30,13,01,20.00
2014,06,30,13,02,20.10
2014,06,30,13,03,20.20
2014,06,30,13,04,20.30
2014,06,30,13,05,20.30
2014,06,30,13,06,20.40
2014,06,30,13,07,20.30
2014,06,30,13,08,20.40
2014,06,30,13,09,20.40
2014,06,30,13,10,20.50
2014,06,30,13,11,20.50
2014,06,30,13,12,20.60
2014,06,30,13,13,20.50
2014,06,30,13,14,20.50
2014,06,30,13,15,20.50
2014,06,30,13,16,20.50
2014,06,30,13,17,20.50
2014,06,30,13,18,20.50
2014,06,30,13,19,20.50
2014,06,30,13,20,20.50
2014,06,30,13,21,20.50
2014,06,30,13,22,20.50
2014,06,30,13,23,20.50
2014,06,30,13,24,20.50
2014,06,30,13,25,20.40
2014,06,30,13,26,20.50
2014,06,30,13,27,20.50
2014,06,30,13,28,20.60
2014,06,30,13,29,20.70
2014,06,30,13,30,20.80
2014,06,30,13,31,20.80
2014,06,30,13,32,20.80
2014,06,30,13,33,20.80
2014,06,30,13,34,20.70
2014,06,30,13,35,20.60
2014,06,30,13,36,20.50
2014,06,30,13,37,20.50
2014,06,30,13,38,20.60
2014,06,30,13,39,20.60
2014,06,30,13,40,20.70
2014,06,30,13,41,20.80
2014,06,30,13,42,20.80
2014,06,30,13,43,20.80
2014,06,30,13,44,20.80
2014,06,30,13,45,20.80
2014,06,30,13,46,20.90
2014,06,30,13,47,20.80
2014,06,30,13,48,20.80
2014,06,30,13,49,20.70
2014,06,30,13,50,20.80
2014,06,30,13,51,20.90
2014,06,30,13,52,21.00
2014,06,30,13,53,21.00
2014,06,30,13,54,21.00
2014,06,30,13,55,21.00
2014,06,30,13,56,21.00
2014,06,30,13,57,21.00
2014,06,30,13,58,21.10
2014,06,30,13,59,21.10
2014,06,30,14,00,21.10
2014,06,30,14,01,21.00
2014,06,30,14,02,20.90
2014,06,30,14,03,20.90
2014,06,30,14,04,20.90
2014,06,30,14,05,20.90
2014,06,30,14,06,20.90
2014,06,30,14,07,21.00
2014,06,30,14,08,21.00
2014,06,30,14,09,21.00
2014,06,30,14,10,20.90
2014,06,30,14,11,20.90
2014,06,30,14,12,20.90
2014,06,30,14,13,20.90
2014,06,30,14,14,21.00
2014,06,30,14,15,21.00
2014,06,30,14,16,21.10
2014,06,30,14,17,21.20
2014,06,30,14,18,21.30
2014,06,30,14,19,21.30
2014,06,30,14,20,21.30
2014,06,30,14,21,21.30
2014,06,30,14,22,21.20
2014,06,30,14,23,21.10
2014,06,30,14,24,21.10
2014,06,30,14,25,21.10
2014,06,30,14,26,21.10
2014,06,30,14,27,21.20
2014,06,30,14,28,21.20
2014,06,30,14,29,21.20
2014,06,30,14,30,21.20
2014,06,30,14,31,21.30
2014,06,30,14,32,21.30
2014,06,30,14,33,21.40
2014,06,30,14,34,21.40
2014,06,30,14,35,21.40
2014,06,30,14,36,21.40
2014,06,30,14,37,21.40
2014,06,30,14,38,21.40
2014,06,30,14,39,21.40
2014,06,30,14,40,21.40
2014,06,30,14,41,21.30
2014,06,30,14,42,21.20
2014,06,30,14,43,21.20
2014,06,30,14,44,21.10
2014,06,30,14,45,21.10
2014,06,30,14,46,21.10
2014,06,30,14,47,21.10
2014,06,30,14,48,21.10
2014,06,30,14,49,21.20
2014,06,30,14,50,21.30
2014,06,30,14,51,21.30
2014,06,30,14,52,21.40
2014,06,30,14,53,21.50
2014,06,30,14,54,21.50
2014,06,30,14,55,21.40
2014,06,30,14,56,21.40
2014,06,30,14,57,21.50
2014,06,30,14,58,21.50
2014,06,30,14,59,21.40
2014,06,30,15,00,21.40
2014,06,30,15,01,21.40
2014,06,30,15,02,21.40
2014,06,30,15,03,21.40
2014,06,30,15,04,21.50
2014,06,30,15,05,21.40
2014,06,30,15,06,21.40
2014,06,30,15,07,21.40
2014,06,30,15,08,21.40
2014,06,30,15,09,21.40
2014,06,30,15,10,21.50
2014,06,30,15,11,21.50
2014,06,30,15,12,21.50
2014,06,30,15,13,21.60
2014,06,30,15,14,21.60
2014,06,30,15,15,21.50
2014,06,30,15,16,21.50
2014,06,30,15,17,21.60
2014,06,30,15,18,21.60
2014,06,30,15,19,21.70
2014,06,30,15,20,21.70
2014,06,30,15,21,21.80
2014,06,30,15,22,21.80
2014,06,30,15,23,21.90
2014,06,30,15,24,22.00
2014,06,30,15,25,22.00
2014,06,30,15,26,22.00
2014,06,30,15,27,22.00
2014,06,30,15,28,21.90
2014,06,30,15,29,21.90
2014,06,30,15,30,21.80
2014,06,30,15,31,21.80
2014,06,30,15,32,21.80
2014,06,30,15,33,21.80
2014,06,30,15,34,21.70
2014,06,30,15,35,21.80
2014,06,30,15,36,21.80
2014,06,30,15,37,21.80
2014,06,30,15,38,21.90
2014,06,30,15,39,21.90
2014,06,30,15,40,22.00
2014,06,30,15,41,22.00
2014,06,30,15,42,22.10
2014,06,30,15,43,22.10
2014,06,30,15,44,22.20
2014,06,30,15,45,22.20
2014,06,30,15,46,22.20
2014,06,30,15,47,22.20
2014,06,30,15,48,22.20
2014,06,30,15,49,22.20
2014,06,30,15,50,22.20
2014,06,30,15,51,22.20
2014,06,30,15,52,22.20
2014,06,30,15,53,22.10
2014,06,30,15,54,22.10
2014,06,30,15,55,22.10
2014,06,30,15,56,22.20
2014,06,30,15,57,22.20
2014,06,30,15,58,22.20
2014,06,30,15,59,22.20
2014,06,30,16,00,22.30
2014,06,30,16,01,22.30
2014,06,30,16,02,22.30
2014,06,30,16,03,22.30
2014,06,30,16,04,22.30
2014,06,30,16,05,22.30
2014,06,30,16,06,22.30
2014,06,30,16,07,22.20
2014,06,30,16,08,22.20
2014,06,30,16,09,22.20
2014,06,30,16,10,22.20
2014,06,30,16,11,22.20
2014,06,30,16,12,22.20
2014,06,30,16,13,22.20
2014,06,30,16,14,22.20
2014,06,30,16,15,22.20
2014,06,30,16,16,22.30
2014,06,30,16,17,22.30
2014,06,30,16,18,22.30
2014,06,30,16,19,22.30
2014,06,30,16,20,22.30
2014,06,30,16,21,22.30
2014,06,30,16,22,22.30
2014,06,30,16,23,22.30
2014,06,30,16,24,22.30
2014,06,30,16,25,22.30
2014,06,30,16,26,22.30
2014,06,30,16,27,22.30
2014,06,30,16,28,22.30
2014,06,30,16,29,22.30
2014,06,30,16,30,22.40
2014,06,30,16,31,22.40
2014,06,30,16,32,22.40
2014,06,30,16,33,22.30
2014,06,30,16,34,22.40
2014,06,30,16,35,22.40
2014,06,30,16,36,22.40
2014,06,30,16,37,22.30
2014,06,30,16,38,22.30
2014,06,30,16,39,22.30
2014,06,30,16,40,22.30
2014,06,30,16,41,22.30
2014,06,30,16,42,22.40
2014,06,30,16,43,22.40
2014,06,30,16,44,22.50
2014,06,30,16,45,22.50
2014,06,30,16,46,22.60
2014,06,30,16,47,22.60
2014,06,30,16,48,22.60
2014,06,30,16,49,22.70
2014,06,30,16,50,22.80
2014,06,30,16,51,22.90
2014,06,30,16,52,22.90
2014,06,30,16,53,22.90
2014,06,30,16,54,23.00
2014,06,30,16,55,23.00
2014,06,30,16,56,23.00
2014,06,30,16,57,23.00
2014,06,30,16,58,23.00
2014,06,30,16,59,23.00
2014,06,30,17,00,22.90
2014,06,30,17,01,22.90
2014,06,30,17,02,22.90
2014,06,30,17,03,22.90
2014,06,30,17,04,22.90
2014,06,30,17,05,22.90
2014,06,30,17,06,22.90
2014,06,30,17,07,22.90
2014,06,30,17,08,22.90
2014,06,30,17,09,22.90
2014,06,30,17,10,22.90
2014,06,30,17,11,22.80
2014,06,30,17,12,22.80
2014,06,30,17,13,22.80
2014,06,30,17,14,22.80
2014,06,30,17,15,22.70
2014,06,30,17,16,22.70
2014,06,30,17,17,22.70
2014,06,30,17,18,22.70
2014,06,30,17,19,22.70
2014,06,30,17,20,22.70
2014,06,30,17,21,22.70
2014,06,30,17,22,22.60